Regional Weather Roundup
Issued by NWS

Home | Current Version | Previous Version | Text Only | Print | Product List | Glossary Off
Versions: 1 2 3 4 5 6 7 8 9 10 11 12 13 14 15 16 17 18 19 20 21 22 23 24 25 26 27 28 29 30 31 32 33 34 35 36 37 38 39 40 41 42 43 44 45 46 47 48 49 50

000
ASUS43 KLMK 281902
RWRKY
KENTUCKY REGIONAL WEATHER ROUNDUP
NATIONAL WEATHER SERVICE LOUISVILLE KY
300 PM EDT THU APR 28 2016

NOTE "FAIR" INDICATES FEW OR NO CLOUDS BELOW 12,000 FEET
WITH NO SIGNIFICANT WEATHER AND/OR OBSTRUCTIONS TO VISIBILITY.

KYZ001>023-026-027-061>063-070>075-282000-
WESTERN AND SOUTH CENTRAL KENTUCKY

CITY           SKY/WX    TMP DP  RH WIND       PRES   REMARKS
PADUCAH        SUNNY     75  53  46 W16       29.90R
HENDERSON      SUNNY     75  52  43 W10G17    29.86S
OWENSBORO      SUNNY     77  55  46 W13       29.88R
HOPKINSVILLE   MOSUNNY   77  59  52 W14       29.89S
BOWLING GREEN  SUNNY     81  60  48 SW18G24   29.88S
GLASGOW        NOT AVBL
$$

KYZ024-025-028>034-038-045-046-053-282000-
NORTH CENTRAL KENTUCKY

CITY           SKY/WX    TMP DP  RH WIND       PRES   REMARKS
LOUISVILLE/SDF PTSUNNY   79  58  48 SW14G20   29.83F
LOUISVILLE/LOU MOSUNNY   78  58  49 SW10G22   29.84S
FORT KNOX      MOSUNNY   76  60  56 SW14      29.84S
$$

KYZ035>037-039>044-047>052-055>060-089>105-282000-
NORTHEAST KENTUCKY

CITY           SKY/WX    TMP DP  RH WIND       PRES   REMARKS
LEXINGTON      MOSUNNY   78  58  49 W17G24    29.85F
COVINGTON      MOSUNNY   75  61  61 W12       29.83F
FRANKFORT      MOSUNNY   77  60  55 W10       29.84S
$$

KYZ054-064>069-076>088-106>120-282000-
SOUTHEAST KENTUCKY

CITY           SKY/WX    TMP DP  RH WIND       PRES   REMARKS
JACKSON        MOSUNNY   79  62  56 MISG      29.88F
LONDON         MOSUNNY   77  57  50 W14       29.89S
SOMERSET       NOT AVBL
MIDDLESBORO    PTSUNNY   77  60  55 S8G16     29.90S
MONTICELLO     MOCLDY    79  61  53 W18G24    29.91S
$$





USA.gov is the U.S. government's official web portal to all federal, state and local government web resources and services.